OBJECT D, 60748

Orbit data source: Space-Track

You're viewing an Uncataloged Satellite

Recently launched and/or uncataloged satellites may have evolving metadata. Metadata may include but not limited to: Owner, Maufacturer, Bus, Motor, and Mission.

OBJECT D, 60748 is a Chinese satellite in SSO that was launched on Thu, 29 Aug 2024 UTC via a GUSHENXING 1 launch vehicle from the Yellow Sea Launch Area, China (YSLA). Unknown objects in Earth's orbit typically refer to objects detected orbiting the Earth but have not yet been identified or cataloged. These objects could be anything from previously untracked satellites, spent rocket stages, debris from satellite collisions, or even natural meteoroids temporarily captured by Earth's gravity.

Loading next visibility...
Identifier
60748, 2024-153D
Orbit
SSO
Country
Flag of CNCN / PRC
Related business
None
Manufacturer
JTXZ
Mission
Operational Commercial Imaging
Bus & Motor
JTX, Unknown motor
Mass
~50 kg wet, ~50 kg dry
Launch date (UTC)
2024-08-29 (1 year ago)
Launch vehicle
GUSHENXING 1
Launch site
Yellow Sea Launch Area, China (YSLA)
Object type
Unknown
Shape & HBR
Box + 1 Pan, 2.5 m
Radar Cross Section
5.339 m², Medium (>0.1 m² and < 1m²)

Expand to show TLE details & history
Last TLE update: 1 week ago

TLE from 1 week ago
0 OBJECT D
1 60748U 24153D   25235.29849433  .00004239  00000-0  18763-3 0  9995
2 60748  97.6438   2.3267 0008079 149.6263 210.5442 15.22200434 54515
Epoch: 2025-08-23T07:09Z
TLE epoch observation values (Epoch: 2025-08-23T07:09:49.91Z)
Latitude
-0.00002°
Longitude
-76.96652°
Altitude
507.079 km
Speed
7.608 km/s
True Right ascension
00h 09m 18s
True Declination
0° 00' 00"
Sunlit
Object was in full shadow at epoch
Visualization orbit readout
Latitude
Unknown
Longitude
Unknown
Altitude
Unknown
Speed
Unknown
Apparent Right ascension
Unknown
Apparent Declination
Unknown
Sunlit
N/A
Visualization observer readout
Local Sidereal Time
15:35:50
Azimuth
Unknown
Elevation
Unknown
Doppler factor
Unknown
Orbital elements
Apogee altitude
501.732 km
Perigee altitude
490.624 km
Semi-major axis
6,874.315 km
Eccentricity
0.00081
Inclination
97.6438°
RAAN
2.3267°
Arg. of periapsis
149.6263°
True anomaly
210.49719°
Mean anomaly
210.5442°
Eccentric anomaly
210.52069°
Mean motion
3.80802 °/min
Orbital period
94.54 mins
BSTAR
0.00018763
Loading maneuver chart data...
Computing Atmospheric mass density...
Loading historical data...
Loading historical data...
Loading historical data...
Loading historical data...
Loading historical data...
Loading historical data...
Loading historical data...

Documentation

Showing up to 5 results
|